• In Kazakhstan
  • List of Countries
  • For 7 days
  • Water Temperature
  • Satellite Maps
  • Weather Map
  • News
  • Weather Widgets
  • user-avatar
    Login

    Hourly Weather Vanadzor

    Today, 20 June, Thursday

    Time Temperature Precipitation Wind Pressure Humidity
    00:00 +15°C° 0.9 mm 1 mps 634 mmHg 89%
    01:00 +14°C° 0.1 mm 1 mps 634 mmHg 89%
    02:00 +14°C° 0.1 mm 1 mps 633 mmHg 90%
    03:00 +14°C° 0.1 mm 1 mps 633 mmHg 90%
    04:00 +14°C° 0 mm 1 mps 634 mmHg 89%
    05:00 +15°C° 0 mm 1 mps 634 mmHg 89%
    06:00 +16°C° 0 mm 1 mps 634 mmHg 88%
    07:00 +18°C° 0.6 mm 1 mps 634 mmHg 86%
    08:00 +19°C° 0.6 mm 1 mps 634 mmHg 83%
    09:00 +20°C° 0.6 mm 2 mps 634 mmHg 81%
    10:00 +20°C° 1.7 mm 2 mps 634 mmHg 79%
    11:00 +21°C° 1.7 mm 2 mps 634 mmHg 77%
    12:00 +21°C° 1.7 mm 2 mps 634 mmHg 75%
    13:00 +21°C° 1.3 mm 2 mps 634 mmHg 76%
    14:00 +21°C° 1.3 mm 2 mps 634 mmHg 77%
    15:00 +21°C° 1.3 mm 2 mps 633 mmHg 78%
    16:00 +21°C° 0.9 mm 2 mps 633 mmHg 80%
    17:00 +20°C° 0.9 mm 2 mps 633 mmHg 82%
    18:00 +20°C° 0.9 mm 2 mps 633 mmHg 85%
    19:00 +19°C° 1.4 mm 1 mps 633 mmHg 86%
    20:00 +18°C° 1.4 mm 1 mps 633 mmHg 88%
    21:00 +15°C° 1.4 mm 1 mps 633 mmHg 90%
    22:00 +15°C° 0.3 mm 1 mps 633 mmHg 90%
    23:00 +15°C° 0.3 mm 1 mps 633 mmHg 89%

    Tomorrow, 21 June, Friday

    Time Temperature Precipitation Wind Pressure Humidity
    00:00 +15°C° 0.3 mm 1 mps 633 mmHg 89%
    01:00 +15°C° 0 mm 1 mps 633 mmHg 88%
    02:00 +14°C° 0 mm 1 mps 633 mmHg 87%
    03:00 +14°C° 0 mm 1 mps 632 mmHg 86%
    04:00 +14°C° 0.1 mm 1 mps 633 mmHg 86%
    05:00 +15°C° 0.1 mm 1 mps 633 mmHg 86%
    06:00 +16°C° 0.1 mm 1 mps 633 mmHg 86%
    07:00 +18°C° 0.4 mm 1 mps 634 mmHg 83%
    08:00 +19°C° 0.4 mm 1 mps 634 mmHg 80%
    09:00 +20°C° 0.4 mm 2 mps 634 mmHg 76%
    10:00 +20°C° 0.9 mm 2 mps 634 mmHg 75%
    11:00 +21°C° 0.9 mm 2 mps 634 mmHg 73%
    12:00 +23°C° 0.9 mm 2 mps 634 mmHg 72%
    13:00 +23°C° 0.8 mm 2 mps 634 mmHg 73%
    14:00 +23°C° 0.8 mm 2 mps 634 mmHg 74%
    15:00 +23°C° 0.8 mm 2 mps 634 mmHg 75%
    16:00 +21°C° 0.8 mm 2 mps 634 mmHg 78%
    17:00 +20°C° 0.8 mm 2 mps 634 mmHg 82%
    18:00 +20°C° 0.8 mm 2 mps 634 mmHg 85%
    19:00 +18°C° 0.8 mm 2 mps 634 mmHg 87%
    20:00 +18°C° 0.8 mm 1 mps 634 mmHg 89%
    21:00 +15°C° 0.8 mm 1 mps 634 mmHg 91%
    22:00 +15°C° 0 mm 1 mps 634 mmHg 91%
    23:00 +15°C° 0 mm 1 mps 634 mmHg 90%

    Day after tomorrow, 22 June, Saturday

    Time Temperature Precipitation Wind Pressure Humidity
    00:00 +14°C° 0 mm 1 mps 634 mmHg 90%
    01:00 +14°C° 0 mm 1 mps 634 mmHg 90%
    02:00 +13°C° 0 mm 1 mps 634 mmHg 90%
    03:00 +13°C° 0 mm 1 mps 634 mmHg 90%
    04:00 +14°C° 0 mm 1 mps 634 mmHg 89%
    05:00 +15°C° 0 mm 1 mps 635 mmHg 89%
    06:00 +16°C° 0 mm 1 mps 635 mmHg 88%
    07:00 +18°C° 0.1 mm 1 mps 636 mmHg 85%
    08:00 +20°C° 0.1 mm 1 mps 636 mmHg 81%
    09:00 +20°C° 0.1 mm 2 mps 637 mmHg 78%
    10:00 +20°C° 0.6 mm 2 mps 637 mmHg 78%
    11:00 +21°C° 0.6 mm 2 mps 637 mmHg 78%
    12:00 +21°C° 0.6 mm 2 mps 636 mmHg 78%
    13:00 +23°C° 0.9 mm 2 mps 636 mmHg 78%
    14:00 +23°C° 0.9 mm 2 mps 636 mmHg 77%
    15:00 +23°C° 0.9 mm 2 mps 636 mmHg 76%
    16:00 +23°C° 0.8 mm 2 mps 636 mmHg 79%
    17:00 +21°C° 0.8 mm 2 mps 636 mmHg 82%
    18:00 +21°C° 0.8 mm 2 mps 636 mmHg 85%
    19:00 +20°C° 0.8 mm 1 mps 636 mmHg 86%
    20:00 +19°C° 0.8 mm 1 mps 636 mmHg 88%
    21:00 +16°C° 0.8 mm 1 mps 636 mmHg 90%
    22:00 +16°C° 0.1 mm 1 mps 636 mmHg 89%
    23:00 +16°C° 0.1 mm 1 mps 636 mmHg 89%

    23 June, Sunday

    Time Temperature Precipitation Wind Pressure Humidity
    00:00 +16°C° 0.1 mm 1 mps 636 mmHg 89%
    01:00 +15°C° 0 mm 1 mps 636 mmHg 88%
    02:00 +15°C° 0 mm 1 mps 636 mmHg 87%
    03:00 +15°C° 0 mm 1 mps 636 mmHg 86%
    04:00 +16°C° 0 mm 1 mps 636 mmHg 86%
    05:00 +16°C° 0 mm 1 mps 636 mmHg 86%
    06:00 +18°C° 0 mm 1 mps 637 mmHg 86%
    07:00 +20°C° 0.1 mm 1 mps 637 mmHg 82%
    08:00 +21°C° 0.1 mm 1 mps 638 mmHg 78%
    09:00 +23°C° 0.1 mm 2 mps 638 mmHg 75%
    10:00 +24°C° 0.4 mm 2 mps 638 mmHg 72%
    11:00 +25°C° 0.4 mm 2 mps 638 mmHg 70%
    12:00 +25°C° 0.4 mm 2 mps 638 mmHg 67%
    13:00 +26°C° 0.3 mm 2 mps 638 mmHg 66%
    14:00 +26°C° 0.3 mm 2 mps 638 mmHg 66%
    15:00 +26°C° 0.3 mm 2 mps 638 mmHg 65%
    16:00 +25°C° 0.4 mm 2 mps 637 mmHg 71%
    17:00 +25°C° 0.4 mm 2 mps 637 mmHg 76%
    18:00 +24°C° 0.4 mm 2 mps 637 mmHg 82%
    19:00 +21°C° 0.5 mm 2 mps 637 mmHg 84%
    20:00 +20°C° 0.5 mm 1 mps 636 mmHg 86%
    21:00 +18°C° 0.5 mm 1 mps 636 mmHg 87%
    22:00 +18°C° 0.1 mm 1 mps 636 mmHg 88%
    23:00 +18°C° 0.1 mm 1 mps 636 mmHg 88%

    24 June, Monday

    Time Temperature Precipitation Wind Pressure Humidity
    00:00 +16°C° 0.1 mm 1 mps 636 mmHg 88%
    01:00 +16°C° 0 mm 1 mps 636 mmHg 87%
    02:00 +16°C° 0 mm 1 mps 636 mmHg 86%
    03:00 +16°C° 0 mm 1 mps 636 mmHg 86%
    04:00 +16°C° 0 mm 1 mps 636 mmHg 85%
    05:00 +18°C° 0 mm 1 mps 636 mmHg 85%
    06:00 +19°C° 0 mm 1 mps 637 mmHg 85%
    07:00 +21°C° 0 mm 1 mps 637 mmHg 81%
    08:00 +22°C° 0 mm 1 mps 637 mmHg 77%
    09:00 +24°C° 0 mm 2 mps 638 mmHg 73%
    10:00 +24°C° 0.4 mm 2 mps 638 mmHg 72%
    11:00 +25°C° 0.4 mm 2 mps 638 mmHg 71%
    12:00 +26°C° 0.4 mm 2 mps 638 mmHg 70%
    13:00 +26°C° 0.7 mm 2 mps 637 mmHg 71%
    14:00 +26°C° 0.7 mm 2 mps 637 mmHg 71%
    15:00 +26°C° 0.7 mm 3 mps 637 mmHg 72%
    16:00 +25°C° 0.5 mm 2 mps 637 mmHg 75%
    17:00 +25°C° 0.5 mm 2 mps 637 mmHg 79%
    18:00 +24°C° 0.5 mm 2 mps 637 mmHg 82%
    19:00 +22°C° 0.8 mm 1 mps 637 mmHg 83%
    20:00 +20°C° 0.8 mm 1 mps 637 mmHg 85%
    21:00 +19°C° 0.8 mm 1 mps 637 mmHg 86%
    22:00 +18°C° 0 mm 1 mps 636 mmHg 86%
    23:00 +18°C° 0 mm 1 mps 636 mmHg 86%

    25 June, Tuesday

    Time Temperature Precipitation Wind Pressure Humidity
    00:00 +16°C° 0 mm 1 mps 636 mmHg 85%
    01:00 +16°C° 0 mm 1 mps 636 mmHg 85%
    02:00 +16°C° 0 mm 1 mps 636 mmHg 84%
    03:00 +16°C° 0 mm 1 mps 636 mmHg 83%
    04:00 +16°C° 0 mm 1 mps 636 mmHg 83%
    05:00 +18°C° 0 mm 1 mps 637 mmHg 83%
    06:00 +19°C° 0 mm 1 mps 637 mmHg 83%
    07:00 +21°C° 0 mm 1 mps 637 mmHg 78%
    08:00 +23°C° 0 mm 1 mps 638 mmHg 73%
    09:00 +24°C° 0 mm 1 mps 638 mmHg 69%
    10:00 +25°C° 0.2 mm 1 mps 638 mmHg 68%
    11:00 +26°C° 0.2 mm 2 mps 638 mmHg 67%
    12:00 +27°C° 0.2 mm 2 mps 638 mmHg 66%
    13:00 +27°C° 0.5 mm 2 mps 638 mmHg 65%
    14:00 +27°C° 0.5 mm 2 mps 638 mmHg 64%
    15:00 +27°C° 0.5 mm 2 mps 638 mmHg 63%
    16:00 +27°C° 0.4 mm 2 mps 637 mmHg 68%
    17:00 +26°C° 0.4 mm 1 mps 637 mmHg 73%
    18:00 +25°C° 0.4 mm 1 mps 637 mmHg 78%
    19:00 +23°C° 0.1 mm 1 mps 637 mmHg 80%
    20:00 +22°C° 0.1 mm 1 mps 637 mmHg 82%
    21:00 +20°C° 0.1 mm 1 mps 636 mmHg 84%
    22:00 +19°C° 0 mm 1 mps 636 mmHg 83%
    23:00 +19°C° 0 mm 1 mps 636 mmHg 82%
    Show more